This is the latest recevied weather packets stored in our database for station/object DL4JCP-6. If no packets are shown the sender has not sent any weather packets the latest 10 day(s).
| Time | Temp. | Humidity | Pressure | Rain* | Wind** | Luminosity | Snow |
|---|---|---|---|---|---|---|---|
| 1778337194 | 13.89° C | 72% | 1019.8 hPa | 0 mm | - | - | - |
| 1778337114 | 13.89° C | 72% | 1019.8 hPa | 0 mm | - | - | - |
| 1778336815 | 14.44° C | 71% | 1020.2 hPa | 0 mm | - | - | - |
| 1778336515 | 14.44° C | 71% | 1020.2 hPa | 0 mm | - | - | - |
| 1778336295 | 14.44° C | 71% | 1020.2 hPa | 0 mm | - | - | - |
| 1778336215 | 14.44° C | 71% | 1020.2 hPa | 0 mm | - | - | - |
| 1778335916 | 15° C | 70% | 1020.2 hPa | 0 mm | - | - | - |
| 1778335615 | 15° C | 71% | 1020.2 hPa | 0 mm | - | - | - |
| 1778335394 | 15° C | 70% | 1020.3 hPa | 0 mm | - | - | - |
| 1778335316 | 15° C | 70% | 1020.3 hPa | 0 mm | - | - | - |
| 1778335015 | 15.56° C | 72% | 1020.6 hPa | 0 mm | - | - | - |
| 1778334715 | 15° C | 72% | 1020.4 hPa | 0 mm | - | - | - |
| 1778334495 | 14.44° C | 71% | 1020.5 hPa | 0 mm | - | - | - |
| 1778334415 | 14.44° C | 71% | 1020.5 hPa | 0 mm | - | - | - |
| 1778334114 | 14.44° C | 72% | 1020.4 hPa | 0 mm | - | - | - |
| 1778333815 | 14.44° C | 72% | 1020.4 hPa | 0 mm | - | - | - |
| 1778333598 | 14.44° C | 71% | 1020.2 hPa | 0 mm | - | - | - |
| 1778333514 | 14.44° C | 71% | 1020.2 hPa | 0 mm | - | - | - |
| 1778333214 | 15° C | 68% | 1020.5 hPa | 0 mm | - | - | - |
| 1778332914 | 15° C | 68% | 1020.4 hPa | 0 mm | - | - | - |
| 1778332695 | 15° C | 68% | 1020.5 hPa | 0 mm | - | - | - |
| 1778332615 | 15° C | 68% | 1020.5 hPa | 0 mm | - | - | - |
| 1778332313 | 15° C | 73% | 1020.5 hPa | 0 mm | - | - | - |
| 1778332015 | 13.89° C | 71% | 1020.3 hPa | 0 mm | - | - | - |
| 1778331794 | 13.89° C | 71% | 1020.4 hPa | 0 mm | - | - | - |
* Rain latest hour (hover to see other rain measurements)
** Current wind speed in m/s (hover to see current wind gust speed)